This is the latest recevied weather packets stored in our database for station/object GW4288. If no packets are shown the sender has not sent any weather packets the latest 1 day(s).
| Time | Temp. | Humidity | Pressure | Rain* | Wind** | Luminosity | Snow |
|---|---|---|---|---|---|---|---|
| 1778166072 | 17.78° C | 62% | 1012.5 hPa | 0 mm | - | 95 W/m² | - |
| 1778165940 | 17.78° C | 62% | 1012.4 hPa | 0 mm | - | 95 W/m² | - |
| 1778165827 | 17.78° C | 61% | 1012.8 hPa | 0 mm | - | 94 W/m² | - |
| 1778165697 | 17.78° C | 61% | 1012.8 hPa | 0 mm | - | 92 W/m² | - |
| 1778165576 | 17.78° C | 63% | 1012.6 hPa | 0 mm | - | 94 W/m² | - |
| 1778165456 | 17.78° C | 62% | 1012.7 hPa | 0 mm | - | 97 W/m² | - |
| 1778165338 | 17.78° C | 61% | 1012.7 hPa | 0 mm | - | 98 W/m² | - |
| 1778165217 | 17.78° C | 61% | 1012.6 hPa | 0 mm | - | 100 W/m² | - |
| 1778165096 | 17.78° C | 61% | 1012.6 hPa | 0 mm | - | 103 W/m² | - |
| 1778164977 | 17.78° C | 60% | 1012.7 hPa | 0 mm | - | 104 W/m² | - |
| 1778164857 | 18.33° C | 59% | 1012.7 hPa | 0 mm | - | 102 W/m² | - |
| 1778164737 | 17.78° C | 59% | 1012.6 hPa | 0 mm | - | 98 W/m² | - |
| 1778164616 | 17.78° C | 60% | 1012.7 hPa | 0 mm | - | 99 W/m² | - |
| 1778164496 | 17.78° C | 61% | 1012.6 hPa | 0 mm | - | 105 W/m² | - |
| 1778164376 | 17.78° C | 62% | 1012.6 hPa | 0 mm | - | 114 W/m² | - |
| 1778164256 | 17.78° C | 62% | 1012.7 hPa | 0 mm | - | 117 W/m² | - |
| 1778164137 | 18.33° C | 61% | 1012.6 hPa | 0 mm | - | 110 W/m² | - |
| 1778164016 | 18.33° C | 61% | 1012.6 hPa | 0 mm | - | 107 W/m² | - |
| 1778163896 | 18.33° C | 61% | 1012.4 hPa | 0 mm | - | 110 W/m² | - |
| 1778163776 | 18.33° C | 61% | 1012.7 hPa | 0 mm | - | 114 W/m² | - |
| 1778163657 | 18.33° C | 61% | 1012.4 hPa | 0 mm | - | 116 W/m² | - |
| 1778163536 | 18.33° C | 61% | 1012.5 hPa | 0 mm | - | 113 W/m² | - |
| 1778163417 | 18.33° C | 60% | 1012.6 hPa | 0 mm | - | 105 W/m² | - |
| 1778163296 | 18.33° C | 63% | 1012.7 hPa | 0 mm | - | 101 W/m² | - |
| 1778163209 | 18.33° C | 62% | 1012.8 hPa | 0 mm | - | 104 W/m² | - |
* Rain latest hour (hover to see other rain measurements)
** Current wind speed in m/s (hover to see current wind gust speed)